Date,TemperatureHighF,TemperatureAvgF,TemperatureLowF,DewpointHighF,DewpointAvgF,DewpointLowF,HumidityHigh,HumidityAvg,HumidityLow,PressureMaxIn,PressureMinIn,WindSpeedMaxMPH,WindSpeedAvgMPH,GustSpeedMaxMPH,PrecipitationSumIn
2013-3-1,33.9,30.4,27.4,28.2,25.5,21.5,88,82,73,29.98,29.88,16,3,16,0.00
2013-3-2,29.4,26.8,24.4,23.2,21.9,20.1,88,82,69,29.98,29.91,14,2,14,0.00
2013-3-3,29.4,26.2,22.9,20.7,18.9,17.6,86,74,63,30.04,29.94,16,3,16,0.01
2013-3-4,38.6,28.6,21.5,21.1,17.9,13.7,86,65,45,30.16,30.06,15,2,15,0.00
2013-3-5,52.2,37.5,19.8,29.8,20.3,12.8,92,55,27,30.11,29.65,21,2,21,0.00
2013-3-6,40.1,37.0,32.0,33.0,29.7,25.5,94,75,59,30.11,29.83,16,2,16,0.41
2013-3-7,39.1,35.8,32.7,31.9,30.0,27.3,91,80,64,30.28,30.14,14,2,14,0.04
2013-3-8,36.4,32.2,24.7,27.7,25.8,22.0,92,77,68,30.43,30.35,14,3,14,0.00
2013-3-9,60.5,49.2,32.4,33.3,26.0,18.8,80,43,26,30.41,30.18,12,1,12,0.01
2013-3-10,70.5,60.6,41.3,35.7,31.3,28.6,67,35,23,30.15,29.98,23,5,23,0.00
2013-3-11,63.7,56.5,47.6,49.2,36.8,28.6,88,50,28,29.92,29.70,25,5,27,0.10
2013-3-12,52.4,38.3,36.4,49.7,32.1,28.5,93,78,71,30.01,29.73,15,3,16,0.25
2013-3-13,36.9,31.9,27.6,30.5,25.9,18.2,93,79,51,30.16,29.94,21,4,21,0.03
2013-3-14,40.1,32.0,25.1,21.6,18.7,16.0,80,59,42,30.26,30.14,21,3,21,0.00
2013-3-15,52.0,40.3,27.8,34.6,26.5,18.8,70,58,48,30.10,29.82,20,5,22,0.00
2013-3-16,42.2,40.8,40.0,40.3,39.1,38.1,94,93,92,29.71,29.66,7,0,7,0.02
2013-3-17,37.4,35.9,34.0,24.9,23.4,22.4,67,60,56,30.18,30.14,13,3,13,0.01
2013-3-18,50.0,37.4,31.6,43.8,31.7,26.8,89,80,75,30.10,29.70,46,10,46,0.07
2013-3-19,50.0,40.2,31.6,43.9,25.3,13.0,93,58,28,29.98,29.70,30,6,30,0.16
2013-3-20,41.3,35.7,28.3,19.9,16.9,13.4,60,47,35,30.00,29.80,28,5,28,0.00
2013-3-21,28.6,24.6,19.5,16.8,11.4,6.4,84,58,44,29.96,29.87,19,4,20,0.00
2013-3-22,39.6,31.7,23.8,20.7,18.0,15.3,79,57,42,30.04,29.97,17,3,17,0.00
2013-3-23,48.6,39.7,20.5,25.9,21.9,17.0,87,51,33,30.06,29.98,14,2,15,0.00
2013-3-24,41.9,36.7,29.7,29.9,24.4,19.8,91,63,43,29.99,29.49,16,3,16,0.00
2013-3-25,35.9,34.0,32.1,32.7,31.3,28.0,94,90,77,29.74,29.47,14,3,14,0.42
2013-3-26,43.1,36.9,32.1,33.2,30.8,28.8,91,79,60,30.09,29.89,18,2,18,0.08
2013-3-27,42.9,38.6,32.3,31.7,27.2,23.7,90,65,49,30.17,30.12,17,3,21,0.01
2013-3-28,43.4,38.9,34.6,30.7,28.9,26.7,78,67,53,30.27,30.19,12,2,12,0.00
2013-3-29,52.9,44.2,35.5,32.9,27.1,22.7,79,53,33,30.28,30.16,14,2,16,0.00
2013-3-30,55.9,44.3,24.7,30.4,23.4,16.5,92,48,22,30.26,30.02,10,1,10,0.00
2013-3-31,51.2,48.2,37.8,46.3,42.5,28.2,91,82,47,30.02,29.72,15,3,16,0.12